Location: Newark
(45.9456°N, 15.4064°E)
Time: 08:37:30
(UTC+00:00)

Transit 2A Rocket - All Passes

Search period start: 25 January 2020 00:00
Search period end: 04 February 2020 00:00
Orbit: 593 x 910 km, 66.7° (Epoch: 24 January)

Date Brightness Start Highest point End Pass type
(mag) Time Alt. Az. Time Alt. Az. Time Alt. Az.
25 Jan - 04:10:01 10° SSW 04:14:15 63° ESE 04:18:33 10° NE visible
25 Jan - 05:54:03 10° W 05:57:13 19° NW 06:00:26 10° N visible
25 Jan - 11:08:20 10° N 11:11:38 18° NE 11:15:05 10° E daylight
25 Jan - 12:49:56 10° NNW 12:54:47 89° ENE 13:00:06 10° SSE daylight
25 Jan - 14:34:21 10° WNW 14:36:46 14° WSW 14:39:16 10° SW daylight
26 Jan - 03:27:58 10° S 03:31:51 34° ESE 03:35:46 10° NE visible
26 Jan - 05:10:36 10° WSW 05:14:24 30° NW 05:18:16 10° NNE visible
26 Jan - 10:26:30 10° N 10:28:39 13° NNE 10:30:53 10° ENE daylight
26 Jan - 12:07:28 10° NNW 12:12:12 55° NE 12:17:21 10° SE daylight
26 Jan - 13:50:36 10° WNW 13:54:29 23° WSW 13:58:38 10° SSW daylight
27 Jan - 02:46:30 10° SSE 02:49:33 19° ESE 02:52:36 10° ENE visible
27 Jan - 04:27:31 10° SW 04:31:41 49° NW 04:35:57 10° NNE visible
27 Jan - 06:14:24 10° NW 06:15:22 11° NNW 06:16:21 10° NNW daylight
27 Jan - 11:25:07 10° NNW 11:29:32 35° NE 11:34:17 10° ESE daylight
27 Jan - 13:07:34 10° NW 13:12:07 39° WSW 13:17:03 10° S daylight
28 Jan - 02:07:16 10° ESE 02:07:21 10° ESE 02:07:26 10° ESE visible
28 Jan - 03:44:48 10° SSW 03:49:07 87° NW 03:53:29 10° NNE visible
28 Jan - 05:29:47 10° WNW 05:32:21 15° NW 05:34:58 10° N visible
28 Jan - 10:42:54 10° N 10:46:45 23° NE 10:50:50 10° E daylight
28 Jan - 12:24:49 10° NW 12:29:40 66° WSW 12:34:58 10° SSE daylight
29 Jan - 03:02:28 10° SSW 03:06:38 51° ESE 03:10:51 10° NE visible
29 Jan - 04:46:02 10° W 04:49:27 22° NW 04:52:57 10° N visible
29 Jan - 10:00:51 10° N 10:03:51 16° NE 10:07:00 10° ENE daylight
29 Jan - 11:42:16 10° NNW 11:47:08 76° NE 11:52:29 10° SE daylight
29 Jan - 13:26:06 10° WNW 13:29:14 17° WSW 13:32:32 10° SW daylight
30 Jan - 02:20:36 10° S 02:24:16 28° ESE 02:27:57 10° NE visible
30 Jan - 04:02:42 10° WSW 04:06:39 35° NW 04:10:43 10° NNE visible
30 Jan - 09:19:11 10° N 09:20:51 12° NNE 09:22:33 10° NE daylight
30 Jan - 10:59:51 10° NNW 11:04:32 47° NE 11:09:37 10° SE daylight
30 Jan - 12:42:42 10° NW 12:46:56 28° WSW 12:51:27 10° S daylight
31 Jan - 01:39:27 10° SE 01:42:00 15° ESE 01:44:33 10° ENE visible
31 Jan - 03:19:45 10° SW 03:24:00 60° NW 03:28:21 10° NNE visible
31 Jan - 05:05:47 10° NW 05:07:32 12° NNW 05:09:19 10° N visible
31 Jan - 10:17:32 10° NNW 10:21:49 30° NE 10:26:25 10° ESE daylight
31 Jan - 11:59:48 10° NW 12:04:32 47° WSW 12:09:41 10° S daylight
01 Feb - 02:37:10 10° SSW 02:41:27 77° ESE 02:45:50 10° NE visible
01 Feb - 04:21:38 10° W 04:24:33 17° NW 04:27:33 10° N visible
01 Feb - 09:35:21 10° N 09:39:00 21° NE 09:42:51 10° E daylight
01 Feb - 11:17:07 10° NW 11:22:03 79° WSW 11:27:26 10° SSE daylight
01 Feb - 13:02:17 10° W 13:03:57 11° WSW 13:05:39 10° SW daylight
02 Feb - 01:54:59 10° S 01:59:01 41° ESE 02:03:07 10° NE visible
02 Feb - 03:38:03 10° WSW 03:41:41 26° NW 03:45:26 10° NNE visible
02 Feb - 08:53:22 10° N 08:56:03 15° NE 08:58:52 10° ENE daylight
02 Feb - 10:34:37 10° NNW 10:39:29 65° NE 10:44:49 10° SE daylight
02 Feb - 12:18:03 10° WNW 12:21:42 20° WSW 12:25:34 10° SSW daylight
03 Feb - 01:13:19 10° SSE 01:16:41 23° ESE 01:20:06 10° ENE night (unlit)
03 Feb - 02:54:52 10° WSW 02:58:56 42° NW 03:03:09 10° NNE visible
03 Feb - 08:12:04 10° NNE 08:13:01 10° NNE 08:13:58 10° NE daylight
03 Feb - 09:52:14 10° NNW 09:56:51 40° NE 10:01:50 10° ESE daylight
03 Feb - 11:34:52 10° NW 11:39:21 34° WSW 11:44:12 10° S daylight
